Simultaneous Nadir Overpasses (SNOs) Predictions

Prediction of SNOs between METOP-A and TERRA Satellite Orbit:

Table of predicted SNOs for the next 14.0 days since TLE Epoch: 8/27/2016
Index Date (METOP-A) Time (METOP-A) Lat,Lon (METOP-A) SZA (METOP-A ) Date (TERRA) Time (TERRA) Lat,Lon (TERRA) SZA (TERRA ) Distance(km) Time Diff (sec)
1 08/28/2016 12:27:09 -81.33,-138.88 105.25 08/28/2016 12:27:22 -81.33,-139.06 105.26 2.99 13
2 08/28/2016 13:17:49 81.33, 28.67 74.80 08/28/2016 13:16:48 81.34, 28.65 74.77 0.37 61
3 08/31/2016 08:01:30 -81.33, -72.56 104.23 08/31/2016 08:01:35 -81.33, -72.64 104.24 1.45 5
4 08/31/2016 08:52:10 81.33, 94.99 75.81 08/31/2016 08:51:01 81.33, 95.05 75.78 1.06 69
5 09/03/2016 02:45:11 81.32,-173.97 76.74 09/03/2016 02:46:21 81.33,-173.85 76.79 2.18 70
6 09/
